,

(GMT )
Banff

Weather History for CWZG - July, 2013

Change the Weather History Date:

Thursday, July 25, 2013

  Actual Average Record
Temperature  
Mean Temperature 66 °F -  
Max Temperature 76 °F - - ()
Min Temperature 55 °F - - ()
Growing Degree Days 16 (Base 50)    
Moisture  
Dew Point 53 °F    
Average Humidity 70    
Maximum Humidity 91    
Minimum Humidity 41    
Precipitation  
Precipitation 0.01 in - - ()
Sea Level Pressure  
Sea Level Pressure 30.11 in    
Wind  
Wind Speed 5 mph ()    
Max Wind Speed 10 mph    
Max Gust Speed -    
T = Trace of Precipitation, MM = Missing Value Source: Averaged Metar Reports

Daily Weather History Graph

Daily Weather History Graph

Search for Another Location

Airport or City:

Trip Planner

Search our weather history database for the weather conditions in past years. The results will help you decide how hot, cold, wet, or windy it might be!

Date:

Astronomy

Jul. 25, 2013 Rise Set
Actual Time 5:57 AM MDT 9:38 PM MDT
Civil Twilight 5:15 AM MDT 10:20 PM MDT
Nautical Twilight 4:18 AM MDT 11:17 PM MDT
Astronomical Twilight 2:49 AM MDT 12:43 AM MDT
Moon 10:46 PM MDT (7/25) 10:03 AM MDT (7/25)
Length of Visible Light 17h 04m
Length of Day
15h 41m
Waning Gibbous, 88% of the Moon is Illuminated
Jul 25
Waning Gibbous
Jul 29
Last Quarter
Aug 6
New
Aug 14
First Quarter
Aug 20
Full

Hourly Weather History & Observations

Time (MDT) Temp. Dew Point Humidity Pressure Visibility Wind Dir Wind Speed Gust Speed Precip Events Conditions
12:00 AM 62.8 °F 51.4 °F 66% 30.14 in - NE 6.9 mph - N/A   Unknown
1:00 AM 60.8 °F 50.5 °F 69% 30.14 in - ENE 4.6 mph - N/A   Unknown
2:00 AM 59.0 °F 53.6 °F 82% 30.15 in - ENE 3.5 mph - N/A   Unknown
3:00 AM 58.1 °F 53.6 °F 85% 30.16 in - East 5.8 mph - N/A   Unknown
4:00 AM 55.8 °F 50.9 °F 84% 30.16 in - NNE 3.5 mph - N/A   Unknown
5:00 AM 57.0 °F 53.2 °F 87% 30.16 in - NE 3.5 mph - N/A   Unknown
6:00 AM 55.6 °F 52.9 °F 91% 30.17 in - East 3.5 mph - N/A   Unknown
7:00 AM 55.8 °F 49.1 °F 78% 30.18 in - North 2.3 mph - N/A   Unknown
8:00 AM 57.7 °F 53.2 °F 85% 30.18 in - North 1.2 mph - N/A   Unknown
9:00 AM 59.0 °F 52.3 °F 79% 30.17 in - East 2.3 mph - N/A   Unknown
10:00 AM 62.8 °F 50.7 °F 65% 30.15 in - East 3.5 mph - N/A   Unknown
11:00 AM 67.3 °F 52.0 °F 58% 30.11 in - ENE 3.5 mph - N/A   Unknown
12:00 PM 71.1 °F 52.5 °F 52% 30.08 in - ENE 4.6 mph - N/A   Unknown
1:00 PM 74.1 °F 48.9 °F 41% 30.05 in - NE 4.6 mph - N/A   Unknown
2:00 PM 76.6 °F 51.4 °F 41% 30.02 in - East 6.9 mph - N/A   Unknown
3:00 PM 75.6 °F 53.4 °F 46% 30.03 in - East 6.9 mph - N/A   Unknown
4:00 PM 74.3 °F 53.8 °F 49% 30.02 in - ENE 8.1 mph - N/A   Unknown
5:00 PM 70.7 °F 53.6 °F 55% 30.05 in - East 8.1 mph - N/A   Unknown
6:00 PM 66.0 °F 54.5 °F 66% 30.07 in - NE 9.2 mph - N/A   Unknown
7:00 PM 64.2 °F 54.5 °F 71% 30.06 in - ENE 10.4 mph - N/A   Unknown
8:00 PM 62.6 °F 56.7 °F 81% 30.08 in - NE 8.1 mph - 0.01 in   Unknown
9:00 PM 62.1 °F 55.6 °F 79% 30.07 in - ENE 5.8 mph - N/A   Unknown
10:00 PM 61.2 °F 55.6 °F 82% 30.07 in - NE 8.1 mph - N/A   Unknown
11:00 PM 59.7 °F 55.2 °F 85% 30.09 in - East 5.8 mph - N/A   Unknown